Find Qianfan Jigui 06-02

NORAD ID: 62786 Int'l Des: 2025-016 Owner: YUANX Country: CN Constellation: spacesail operational
LEOCIRCULARPOLAR

現在のビュー

3D地球を読み込み中...

Qianfan Jigui 06-02について

説明を読み込み中...

次回通過

Passes for default location (London). Set your location on the main map for personalized predictions.

高度履歴

Loading altitude history...

軌道要素

1 62786U 25016B 26146.58330371 .00000085 00000-0 11354-3 0 9992
2 62786 88.9708 85.9070 0013826 230.8167 129.1756 13.51014337 69494
Epoch: May 26, 2026 • Age: 8 hours

現在のステータス

高度 1067.3 km
速度 7.32 km/s
衛星直下点 -20.39°S, 50.29°E
打ち上げ日 Jan 23, 2025
運用期間 1.3 years
タイプ internet

技術仕様

分類 Payload
質量 267.00 kg
乾燥質量 267.00 kg
総質量 267.00 kg
長さ 0.30 m
直径 3.00 m
スパン 10.00 m
形状 Box+pan
製造者 SECM
バスタイプ Qianfan
フェーズステータス In Orbit
所有者/国 YUANX/CN

Most Searched